[[{"header":{"parameterUnit":"m.s-1","parameterCategory":2,"la1":30.2991,"la2":30.254,"lo1":-89.0895,"lo2":-89.0444,"dy":0.0017,"dx":0.0017,"nx":28,"ny":28,"refTime":"2024-06-07T03:00:00:Z","depth":"0","parameterNumber":2,"parameterNumberName":"U-component_of_CURRENTS"},"data":[0,0,0,0,0,0,0,0,0,0,0,0,0,0,0,0,0,0,0,0,0,0,0,0,0,0,0,0,0,0,0,0,0,0,0,0,0,0,0,0,0,0,0,0,0,0,0,0,0,0,0,0,0,0,0,0,0,0,0.3118,0.3118,0,0.3108,0.3108,0.3108,0.3078,0.3077,0.3077,0.3076,0.3031,0.303,0.3029,0,0,0,0,0,0,0,0,0,0,0,0,0,0.3123,0.3123,0.3118,0.3118,0.3118,0.3108,0.3108,0.3107,0.3078,0.3077,0.3077,0.3076,0.3031,0.303,0.3029,0,0,0,0,0,0,0,0,0,0,0,0,0,0.3115,0.3123,0.3118,0.3104,0.3102,0.3108,0.3108,0.3107,0.3078,0.3077,0.3076,0.3076,0.3032,0.303,0.3029,0.3035,0,0,0.3026,0.3025,0,0,0,0,0,0,0,0,0.3116,0.3115,0.3106,0.3105,0.3103,0.3096,0.3093,0.3082,0.3078,0.3084,0.3076,0.3075,0.3051,0.3048,0.3045,0.3033,0.3031,0.3025,0.3025,0.3024,0.3024,0,0,0,0,0,0,0,0.3116,0.3115,0.3111,0.3106,0.3104,0.3103,0.31,0.3091,0.3069,0.3084,0.3082,0.3085,0.305,0.3046,0.3044,0.303,0.3025,0.3024,0.3024,0.3023,0.3053,0.3055,0,0,0,0,0,0,0.3123,0.3116,0.3112,0.3111,0.3111,0.3103,0.31,0.3097,0.307,0.3066,0.3086,0.3084,0.3049,0.3045,0.3042,0.3076,0.3024,0.3023,0.3022,0.3052,0.3054,0.3055,0,0,0,0,0,0,0.3123,0.3122,0.3112,0.3116,0.3115,0.3104,0.31,0.3097,0.3095,0.3072,0.3067,0.3087,0.3048,0.3044,0.3045,0.3073,0.3023,0.3021,0.305,0.3052,0.3054,0.3125,0,0,0,0,0,0,0.3123,0.3122,0.3123,0.3116,0.3115,0.3115,0.3101,0.3097,0.3099,0.3096,0.3072,0.3067,0.3047,0.3047,0.3043,0.307,0.3021,0.3048,0.3051,0.3054,0.3121,0.3129,0.3137,0,0,0,0,0,0.3123,0.3124,0.3123,0.3123,0.3115,0.3115,0.3114,0.3103,0.3099,0.3098,0.3092,0.3067,0.3063,0.3047,0.3043,0.307,0.3047,0.305,0.3054,0.3117,0.3128,0.3137,0,0,0,0,0,0,0.3124,0.3121,0.312,0.3119,0.3119,0.3111,0.3112,0.3109,0.3103,0.3103,0.3081,0.3076,0.3089,0.3071,0.3054,0.3089,0.3053,0.3056,0.3103,0.3113,0.3121,0.3117,0.302,0,0,0,0,0,0.3128,0.3126,0.3126,0.3125,0.3127,0.3123,0.3123,0.3119,0.3114,0.3111,0.3095,0.309,0.3101,0.3099,0.3094,0.3108,0.3107,0.3126,0.3134,0.3141,0.3137,0.3179,0.3191,0.3067,0.3066,0.3066,0,0,0.3126,0.3127,0.3124,0.3126,0.3124,0.3136,0.312,0.3123,0.3138,0.3107,0.3115,0.3112,0.3111,0.313,0.3135,0.3118,0.3177,0.3145,0.3151,0.3143,0.3184,0.3196,0.3207,0.3069,0.3068,0.3068,0,0,0.3129,0.3126,0.3129,0.3136,0.3143,0.3145,0.3149,0.3146,0.3147,0.3165,0.3154,0.3167,0.317,0.3175,0.3183,0.3232,0.3217,0.3236,0.3273,0.3315,0.3326,0.3335,0.3352,0.3362,0.3241,0.3241,0.3241,0,0.3131,0.3132,0.3131,0.3145,0.3152,0.3153,0.3165,0.3177,0.3174,0.3185,0.3176,0.3206,0.3197,0.3237,0.3256,0.325,0.3264,0.3237,0.3326,0.3335,0.3343,0.3358,0.3368,0.3245,0.3245,0.3244,0.3244,0,0.314,0.3146,0.315,0.3167,0.3179,0.3185,0.3206,0.3218,0.3229,0.3242,0.3276,0.3274,0.3292,0.3302,0.3295,0.3351,0.3339,0.3332,0.3301,0.336,0.3372,0.3381,0.325,0.3249,0.3248,0.3247,0,0,0.3125,0.3149,0.315,0.316,0.3188,0.3196,0.3235,0.3264,0.3295,0.3311,0.3353,0.3376,0.3375,0.3383,0.3378,0.3411,0.3482,0.34,0.34,0.3414,0.3567,0.3515,0.352,0.3499,0.3501,0.3502,0.3553,0,0.3128,0.3148,0.3165,0.3189,0.3199,0.3226,0.3263,0.3298,0.333,0.3374,0.34,0.3435,0.341,0.3426,0.3459,0.3481,0.3509,0.3467,0.3508,0.3508,0.3455,0.353,0.3381,0.341,0.3562,0.3563,0.3564,0,0.3125,0.314,0.3158,0.3195,0.3204,0.3228,0.3283,0.3315,0.339,0.3423,0.347,0.3491,0.3544,0.3516,0.358,0.3559,0.3564,0.3574,0.3577,0.3507,0.3474,0.3375,0.342,0.3343,0.3578,0.3577,0.3576,0,0.3097,0.3132,0.3141,0.3153,0.3203,0.3225,0.3256,0.3326,0.3361,0.3453,0.3503,0.3561,0.36,0.3632,0.3651,0.3628,0.3723,0.3692,0.3643,0.3639,0.3505,0.3485,0.3474,0.3733,0.3733,0.3733,0.3732,0,0.308,0.3087,0.3129,0.3133,0.316,0.3207,0.3248,0.33,0.3383,0.3437,0.3517,0.3572,0.3636,0.3693,0.3693,0.3706,0.3758,0.366,0.3659,0.3525,0.3507,0.3426,0.3373,0.3734,0.3734,0.3734,0.3733,0,0.3036,0.3061,0.3075,0.3125,0.3141,0.3159,0.3228,0.3262,0.3359,0.3438,0.3474,0.3599,0.3679,0.373,0.3791,0.3754,0.366,0.3757,0.3585,0.3562,0.3415,0.3371,0.3204,0.3115,0.3705,0.3704,0.3703,0,0.3012,0.3014,0.3055,0.306,0.3077,0.3114,0.3139,0.3232,0.3277,0.344,0.3476,0.36,0.3663,0.375,0.3733,0.3741,0.3624,0.3582,0.35,0.3399,0.335,0.3205,0.3133,0.3351,0.3348,0.3345,0.3343,0,0.2968,0.2982,0.2992,0.3006,0.3024,0.3046,0.3096,0.3129,0.3248,0.3322,0.343,0.3501,0.3614,0.3569,0.3598,0.3574,0.3394,0.3521,0.3466,0.3114,0.2904,0.2821,0.3319,0.3317,0.3319,0.3321,0.3323,0.3324,0.2931,0.2922,0.2937,0.2933,0.2955,0.2963,0.2938,0.301,0.3059,0.313,0.3296,0.3342,0.3397,0.3422,0.3382,0.3237,0.3221,0.3112,0.3081,0.2956,0.2816,0.3251,0.322,0.3221,0.3223,0.3225,0.3226,0,0.2863,0.2856,0.2861,0.2842,0.2813,0.2861,0.2884,0.284,0.2832,0.2961,0.3027,0.3075,0.3031,0.3049,0.2964,0.2828,0.2685,0.2733,0.25,0.2466,0.2906,0.2838,0.2661,0.2661,0.2661,0.2661,0.2661,0.2661,0.2829,0.2791,0.2777,0.2694,0.2675,0.2599,0.2576,0.2544,0.2591,0.2583,0.2598,0.2675,0.2775,0.2723,0.2574,0.2504,0.2315,0.2163,0.2193,0.2522,0.2555,0.2586,0.2514,0.2271,0.2271,0.1644,0.1639,0.1636]},{"header":{"parameterUnit":"m.s-1","parameterCategory":2,"la1":30.2991,"la2":30.254,"lo1":-89.0895,"lo2":-89.0444,"dy":0.0017,"dx":0.0017,"nx":28,"ny":28,"refTime":"2024-06-07T03:00:00:Z","depth":"0","parameterNumber":3,"parameterNumberName":"V-component_of_CURRENTS"},"data":[0,0,0,0,0,0,0,0,0,0,0,0,0,0,0,0,0,0,0,0,0,0,0,0,0,0,0,0,0,0,0,0,0,0,0,0,0,0,0,0,0,0,0,0,0,0,0,0,0,0,0,0,0,0,0,0,0,0,0.0356,0.0355,0,0.033,0.033,0.0329,0.0307,0.0307,0.0307,0.0307,0.0275,0.0274,0.0273,0,0,0,0,0,0,0,0,0,0,0,0,0,0.0331,0.0331,0.0356,0.0355,0.0355,0.033,0.033,0.0329,0.0307,0.0307,0.0307,0.0307,0.0275,0.0274,0.0273,0,0,0,0,0,0,0,0,0,0,0,0,0,0.0326,0.0332,0.0356,0.0342,0.0341,0.033,0.033,0.0329,0.0307,0.0307,0.0307,0.0307,0.0275,0.0274,0.0273,0.027,0,0,0.027,0.0269,0,0,0,0,0,0,0,0,0.0326,0.0327,0.0344,0.0343,0.0342,0.0323,0.0309,0.0309,0.0307,0.0319,0.0307,0.0307,0.0291,0.0289,0.0283,0.0269,0.0267,0.027,0.0269,0.0269,0.0268,0,0,0,0,0,0,0,0.0327,0.0327,0.0344,0.0344,0.0343,0.0319,0.0318,0.0309,0.0305,0.0318,0.0316,0.0316,0.029,0.0284,0.0282,0.0267,0.027,0.0269,0.0268,0.0268,0.0256,0.0256,0,0,0,0,0,0,0.0336,0.0328,0.0345,0.0343,0.0335,0.032,0.0319,0.0328,0.0305,0.0302,0.0316,0.0315,0.0286,0.0283,0.0281,0.0294,0.0269,0.0268,0.0267,0.0255,0.0256,0.0256,0,0,0,0,0,0,0.0336,0.0338,0.0346,0.0335,0.0335,0.0321,0.0331,0.0328,0.0326,0.0304,0.0301,0.0318,0.0286,0.0282,0.0278,0.0292,0.0267,0.0266,0.0255,0.0255,0.0256,0.0309,0,0,0,0,0,0,0.0335,0.0338,0.0345,0.0337,0.0336,0.0349,0.0331,0.0327,0.0326,0.0324,0.0305,0.0301,0.0285,0.028,0.0277,0.029,0.0265,0.0254,0.0255,0.0256,0.0307,0.0312,0.0316,0,0,0,0,0,0.0334,0.035,0.0345,0.0347,0.0347,0.035,0.0348,0.0335,0.0326,0.0331,0.0316,0.0302,0.0282,0.028,0.0276,0.0289,0.0254,0.0255,0.0256,0.0305,0.0311,0.0315,0,0,0,0,0,0,0.0342,0.0349,0.0344,0.036,0.0358,0.0347,0.0348,0.0341,0.0332,0.0328,0.0308,0.0303,0.0304,0.0288,0.0286,0.0286,0.0265,0.0265,0.0304,0.0309,0.0313,0.033,0.0264,0,0,0,0,0,0.0348,0.0361,0.036,0.0372,0.0373,0.0361,0.0359,0.0352,0.0344,0.034,0.0327,0.0312,0.0303,0.0301,0.0288,0.029,0.0269,0.0295,0.0299,0.0303,0.0313,0.0291,0.0295,0.0259,0.0259,0.0259,0,0,0.0353,0.0358,0.0365,0.0374,0.0369,0.0383,0.0359,0.0362,0.0377,0.0338,0.0349,0.0325,0.0306,0.0308,0.0307,0.0299,0.03,0.0304,0.0307,0.0316,0.0293,0.0296,0.0299,0.0259,0.0259,0.0259,0,0,0.0376,0.0377,0.0396,0.04,0.0401,0.0397,0.0403,0.0396,0.0394,0.04,0.0375,0.036,0.0352,0.0337,0.0331,0.035,0.0321,0.0346,0.0384,0.0363,0.0366,0.0368,0.0339,0.0339,0.035,0.035,0.035,0,0.0381,0.0412,0.0401,0.0422,0.0433,0.041,0.0437,0.0433,0.0426,0.0431,0.0413,0.0393,0.0367,0.0374,0.0376,0.0361,0.0342,0.0368,0.0369,0.0371,0.0373,0.0342,0.0341,0.0353,0.0353,0.0352,0.0352,0,0.0422,0.0445,0.0457,0.048,0.0488,0.0505,0.0504,0.0508,0.0501,0.0495,0.0496,0.0457,0.0446,0.0432,0.041,0.0412,0.0393,0.0375,0.0359,0.038,0.0346,0.0344,0.0357,0.0356,0.0355,0.0354,0,0,0.0446,0.048,0.0487,0.0513,0.0523,0.054,0.0561,0.058,0.0604,0.0577,0.0604,0.0565,0.0533,0.0523,0.0486,0.0464,0.0445,0.0429,0.0427,0.0405,0.0395,0.0395,0.0391,0.043,0.043,0.043,0.0365,0,0.0485,0.0543,0.0548,0.0604,0.0636,0.0627,0.0656,0.0664,0.0663,0.0679,0.0634,0.064,0.0572,0.057,0.0533,0.0476,0.0442,0.0464,0.0374,0.0371,0.0373,0.039,0.0432,0.0379,0.0362,0.0362,0.0361,0,0.0531,0.0567,0.0632,0.0682,0.0695,0.0724,0.0769,0.0791,0.0797,0.0793,0.0774,0.074,0.0703,0.0645,0.0546,0.0565,0.0483,0.0428,0.0424,0.0407,0.0368,0.0356,0.0375,0.0296,0.0357,0.0358,0.0358,0,0.0571,0.0629,0.0688,0.0705,0.0753,0.0784,0.081,0.0828,0.0867,0.0871,0.0896,0.083,0.0819,0.0711,0.0586,0.0568,0.048,0.0438,0.0356,0.0354,0.0365,0.0364,0.0304,0.0364,0.0364,0.0364,0.0364,0,0.0619,0.0667,0.0715,0.075,0.0827,0.0838,0.0915,0.0928,0.0964,0.1031,0.0959,0.0993,0.0838,0.0768,0.0627,0.0495,0.0504,0.037,0.0344,0.0383,0.0385,0.0296,0.0222,0.0361,0.0362,0.0363,0.0363,0,0.0658,0.0687,0.076,0.0824,0.0851,0.0909,0.0994,0.1048,0.1069,0.1155,0.1167,0.1122,0.1037,0.0873,0.0709,0.0568,0.038,0.0375,0.0429,0.041,0.0256,0.0183,0.0076,0.0038,0.0272,0.0272,0.0271,0,0.0684,0.0726,0.0818,0.087,0.0905,0.0989,0.1053,0.1099,0.1169,0.1246,0.1299,0.1248,0.1243,0.0994,0.0746,0.0512,0.0389,0.0373,0.0341,0.0264,0.0163,0.0118,0.0092,0.0365,0.0365,0.0366,0.0366,0,0.0732,0.0764,0.0826,0.0933,0.1013,0.1112,0.1209,0.1284,0.1361,0.1446,0.154,0.1548,0.1328,0.1132,0.0804,0.0621,0.033,0.0374,0.0285,0.0228,0.0185,0.0133,0.038,0.037,0.037,0.0369,0.0369,0.0369,0.0766,0.0819,0.09,0.1003,0.1099,0.123,0.1321,0.1441,0.1585,0.173,0.1724,0.1784,0.1485,0.106,0.0797,0.0384,0.0354,0.0267,0.0181,0.0143,0.0121,0.0376,0.0345,0.0344,0.0344,0.0344,0.0343,0,0.0807,0.0871,0.0965,0.1093,0.12,0.125,0.1422,0.1533,0.172,0.1868,0.1965,0.1894,0.1523,0.1109,0.0536,0.0254,0.015,0.0104,0.0056,0.0033,0.0262,0.0284,0.0251,0.0252,0.0252,0.0252,0.0252,0.0252,0.0832,0.0922,0.0974,0.1153,0.1247,0.1406,0.1511,0.1694,0.1843,0.2049,0.2126,0.2144,0.1873,0.0883,0.0245,0.0072,-0.0109,-0.0142,-0.0244,-0.0082,-0.0073,-0.0064,-0.0057,-0.0161,-0.0161,-0.0396,-0.0398,-0.0401]}],[{"header":{"parameterUnit":"m.s-1","parameterCategory":2,"la1":30.2991,"la2":30.254,"lo1":-89.0895,"lo2":-89.0444,"dy":0.0017,"dx":0.0017,"nx":28,"ny":28,"refTime":"2024-06-07T03:00:00:Z","depth":"2","parameterNumber":2,"parameterNumberName":"U-component_of_CURRENTS"},"data":[0,0,0,0,0,0,0,0,0,0,0,0,0,0,0,0,0,0,0,0,0,0,0,0,0,0,0,0,0,0,0,0,0,0,0,0,0,0,0,0,0,0,0,0,0,0,0,0,0,0,0,0,0,0,0,0,0,0,0.2608,0.2608,0,0.2611,0.2611,0.2611,0.2598,0.2598,0.2598,0.2597,0.2583,0.2582,0.2582,0,0,0,0,0,0,0,0,0,0,0,0,0,0.2606,0.2606,0.2608,0.2608,0.2608,0.2611,0.2611,0.261,0.2598,0.2598,0.2598,0.2597,0.2583,0.2583,0.2582,0,0,0,0,0,0,0,0,0,0,0,0,0,0.2606,0.2605,0.2608,0.2604,0.2603,0.2611,0.2611,0.261,0.2598,0.2598,0.2597,0.2597,0.2583,0.2583,0.2582,0.2586,0,0,0.2581,0.2581,0,0,0,0,0,0,0,0,0.2606,0.2605,0.2604,0.2604,0.2604,0.2605,0.2605,0.2602,0.2598,0.2598,0.2597,0.2597,0.259,0.2589,0.2588,0.2586,0.2585,0.2581,0.2581,0.2581,0.2581,0,0,0,0,0,0,0,0.2606,0.2605,0.2607,0.2604,0.2604,0.2607,0.2606,0.2604,0.2594,0.2598,0.2598,0.2601,0.259,0.2588,0.2587,0.2585,0.2581,0.2581,0.2581,0.2581,0.2629,0.263,0,0,0,0,0,0,0.2609,0.2605,0.2607,0.2607,0.2606,0.2607,0.2606,0.2604,0.2594,0.2593,0.2601,0.2601,0.2589,0.2588,0.2587,0.263,0.2581,0.2581,0.258,0.2628,0.2629,0.2631,0,0,0,0,0,0,0.2608,0.2608,0.2607,0.2608,0.2608,0.2608,0.2605,0.2604,0.261,0.2597,0.2595,0.261,0.2589,0.2587,0.2599,0.2627,0.258,0.258,0.2626,0.2628,0.263,0.269,0,0,0,0,0,0,0.2608,0.2608,0.2612,0.2608,0.2609,0.2613,0.2605,0.2604,0.2613,0.2612,0.2604,0.2602,0.2588,0.26,0.2599,0.2626,0.258,0.2624,0.2627,0.2629,0.2686,0.2694,0.2701,0,0,0,0,0,0.2608,0.261,0.2612,0.2613,0.2612,0.2614,0.2614,0.2611,0.2614,0.2616,0.262,0.2602,0.2617,0.2601,0.2599,0.2627,0.2623,0.2626,0.2629,0.2683,0.2693,0.2701,0,0,0,0,0,0,0.261,0.261,0.2611,0.2613,0.2616,0.2613,0.2618,0.262,0.2625,0.2629,0.2616,0.2614,0.2636,0.2625,0.2608,0.2651,0.2619,0.2622,0.2661,0.2669,0.2677,0.2674,0.258,0,0,0,0,0,0.2614,0.2615,0.2617,0.2619,0.2623,0.2625,0.2628,0.2629,0.2632,0.2634,0.2629,0.2634,0.2649,0.2653,0.2654,0.2675,0.2674,0.2694,0.2702,0.2708,0.2706,0.2744,0.2755,0.2642,0.2642,0.2642,0,0,0.2614,0.2616,0.2616,0.262,0.2623,0.2636,0.2625,0.2635,0.2651,0.2632,0.2651,0.2655,0.266,0.2685,0.2694,0.2679,0.2741,0.2712,0.2717,0.2712,0.2749,0.276,0.2769,0.2644,0.2644,0.2643,0,0,0.2617,0.262,0.2623,0.2632,0.2643,0.2648,0.2655,0.2659,0.2667,0.2692,0.2687,0.2708,0.2722,0.273,0.2739,0.2788,0.2777,0.2794,0.283,0.2867,0.2877,0.2885,0.29,0.2909,0.28,0.28,0.28,0,0.2622,0.2623,0.2626,0.2638,0.2648,0.2658,0.267,0.2686,0.2695,0.2709,0.2706,0.2748,0.2747,0.2787,0.2807,0.2804,0.2817,0.2796,0.2877,0.2885,0.2892,0.2906,0.2915,0.2803,0.2803,0.2802,0.2802,0,0.2627,0.2635,0.264,0.266,0.2674,0.2684,0.2707,0.2726,0.2746,0.2762,0.2804,0.2811,0.2836,0.2847,0.2844,0.2899,0.2889,0.2881,0.2853,0.2907,0.2918,0.2927,0.2808,0.2807,0.2806,0.2805,0,0,0.2613,0.2638,0.264,0.265,0.2684,0.2692,0.2735,0.2767,0.2801,0.2827,0.2871,0.2902,0.291,0.292,0.2921,0.2952,0.3017,0.2944,0.2944,0.2956,0.3094,0.3025,0.3027,0.3031,0.3033,0.3035,0.3081,0,0.2615,0.2633,0.2651,0.2676,0.2686,0.2718,0.2758,0.2797,0.2835,0.2882,0.2914,0.2956,0.2939,0.2962,0.2993,0.3015,0.3043,0.3004,0.3041,0.3042,0.2972,0.3036,0.2777,0.2791,0.3089,0.309,0.3091,0,0.2609,0.2623,0.2642,0.268,0.269,0.2716,0.2776,0.2811,0.289,0.2927,0.2979,0.3006,0.3062,0.3042,0.3104,0.3085,0.3093,0.3103,0.3105,0.3022,0.2989,0.2786,0.2795,0.3105,0.3104,0.3103,0.3102,0,0.258,0.2614,0.2625,0.2638,0.269,0.2713,0.2749,0.2823,0.2863,0.2957,0.3009,0.307,0.3115,0.3145,0.3168,0.3149,0.3233,0.3207,0.3146,0.314,0.2915,0.2886,0.3247,0.3247,0.3247,0.3247,0.3247,0,0.2561,0.2569,0.2613,0.2617,0.2648,0.2697,0.2744,0.2798,0.2887,0.2941,0.3025,0.3078,0.3148,0.3201,0.3204,0.3207,0.3264,0.316,0.3155,0.2928,0.2902,0.3165,0.3155,0.3249,0.3248,0.3248,0.3248,0,0.2515,0.2543,0.2558,0.2611,0.2628,0.2651,0.2729,0.2766,0.2868,0.2946,0.2984,0.3107,0.3179,0.3229,0.3286,0.3246,0.3257,0.3238,0.296,0.2921,0.3125,0.3118,0.3172,0.317,0.3168,0.3167,0.3166,0,0.249,0.2493,0.2538,0.2547,0.2566,0.2611,0.2641,0.2741,0.2786,0.2946,0.2979,0.3098,0.3148,0.3217,0.3181,0.3176,0.3241,0.2919,0.2829,0.3132,0.3122,0.3117,0.3112,0.2553,0.2547,0.2542,0.2538,0,0.2442,0.2461,0.2472,0.2493,0.2516,0.2541,0.2596,0.2628,0.2751,0.282,0.2913,0.2972,0.3057,0.2938,0.2951,0.2907,0.2901,0.2819,0.3218,0.2618,0.2553,0.2542,0.2556,0.2494,0.2498,0.2501,0.2504,0.2506,0.2405,0.2399,0.2417,0.242,0.2447,0.2453,0.2433,0.2501,0.2545,0.2609,0.275,0.2744,0.2767,0.2655,0.2564,0.2488,0.2688,0.2538,0.2551,0.2569,0.2496,0.2432,0.2335,0.2338,0.2341,0.2344,0.2346,0,0.2339,0.2336,0.2342,0.2331,0.2305,0.2359,0.2378,0.2332,0.2318,0.2414,0.2457,0.2267,0.2187,0.2212,0.2027,0.2015,0.1973,0.1922,0.1836,0.1882,0.1923,0.1814,0.1474,0.1471,0.1468,0.1466,0,0,0.2307,0.227,0.2258,0.2181,0.2173,0.2104,0.2082,0.204,0.206,0.2013,0.1983,0.2133,0.2178,0.1818,0.1753,0.1582,0.1724,0.1517,0.2221,0.217,0.2207,0.2286,0.2172,0,0,0,0,0]},{"header":{"parameterUnit":"m.s-1","parameterCategory":2,"la1":30.2991,"la2":30.254,"lo1":-89.0895,"lo2":-89.0444,"dy":0.0017,"dx":0.0017,"nx":28,"ny":28,"refTime":"2024-06-07T03:00:00:Z","depth":"2","parameterNumber":3,"parameterNumberName":"V-component_of_CURRENTS"},"data":[0,0,0,0,0,0,0,0,0,0,0,0,0,0,0,0,0,0,0,0,0,0,0,0,0,0,0,0,0,0,0,0,0,0,0,0,0,0,0,0,0,0,0,0,0,0,0,0,0,0,0,0,0,0,0,0,0,0,0.0295,0.0295,0,0.0272,0.0271,0.0271,0.0254,0.0253,0.0253,0.0253,0.0228,0.0228,0.0227,0,0,0,0,0,0,0,0,0,0,0,0,0,0.0274,0.0275,0.0295,0.0295,0.0294,0.0272,0.0271,0.0271,0.0254,0.0253,0.0253,0.0253,0.0228,0.0228,0.0227,0,0,0,0,0,0,0,0,0,0,0,0,0,0.0269,0.0275,0.0295,0.0284,0.0283,0.0272,0.0271,0.0271,0.0254,0.0253,0.0253,0.0253,0.0229,0.0228,0.0227,0.0223,0,0,0.0224,0.0224,0,0,0,0,0,0,0,0,0.027,0.027,0.0286,0.0285,0.0283,0.0266,0.0255,0.0255,0.0254,0.0264,0.0253,0.0253,0.0242,0.024,0.0234,0.0222,0.0221,0.0224,0.0223,0.0223,0.0223,0,0,0,0,0,0,0,0.027,0.0271,0.0285,0.0286,0.0284,0.0263,0.0263,0.0254,0.0252,0.0263,0.0262,0.0261,0.0241,0.0235,0.0233,0.022,0.0224,0.0223,0.0223,0.0222,0.0212,0.0212,0,0,0,0,0,0,0.0278,0.0271,0.0285,0.0284,0.0277,0.0264,0.0263,0.0271,0.0253,0.025,0.0261,0.026,0.0236,0.0234,0.0232,0.0245,0.0223,0.0222,0.0222,0.0211,0.0212,0.0212,0,0,0,0,0,0,0.0278,0.028,0.0286,0.0277,0.0277,0.0265,0.0273,0.0271,0.0269,0.0251,0.0249,0.0263,0.0236,0.0234,0.0233,0.0243,0.0222,0.0221,0.0211,0.0211,0.0212,0.0259,0,0,0,0,0,0,0.0278,0.028,0.0286,0.0278,0.0278,0.0289,0.0273,0.027,0.0269,0.0268,0.0252,0.0249,0.0236,0.0234,0.0232,0.0242,0.022,0.0211,0.0211,0.0212,0.0257,0.0261,0.0264,0,0,0,0,0,0.0277,0.029,0.0287,0.0288,0.0288,0.0289,0.0287,0.0276,0.0269,0.0274,0.0263,0.025,0.0236,0.0234,0.0231,0.0241,0.021,0.0211,0.0212,0.0256,0.026,0.0264,0,0,0,0,0,0,0.0283,0.0289,0.0286,0.0299,0.0298,0.0287,0.0288,0.0281,0.0275,0.0273,0.0256,0.0253,0.0254,0.024,0.0239,0.0238,0.022,0.022,0.0254,0.0259,0.0262,0.0277,0.0219,0,0,0,0,0,0.0288,0.03,0.0299,0.0309,0.031,0.0299,0.0297,0.0292,0.0286,0.0283,0.0272,0.026,0.0253,0.0251,0.0241,0.0243,0.0223,0.0246,0.0249,0.0253,0.0262,0.0238,0.0241,0.0214,0.0214,0.0214,0,0,0.0292,0.0298,0.0303,0.0311,0.0306,0.0319,0.0298,0.03,0.0313,0.0281,0.0292,0.0272,0.0256,0.0258,0.0258,0.025,0.0248,0.0253,0.0256,0.0264,0.0239,0.0242,0.0244,0.0214,0.0214,0.0214,0,0,0.0312,0.0313,0.033,0.0334,0.0335,0.0332,0.0336,0.033,0.0329,0.0336,0.0315,0.0302,0.0296,0.0283,0.0278,0.0294,0.0267,0.029,0.0323,0.03,0.0302,0.0304,0.0277,0.0275,0.0293,0.0293,0.0293,0,0.0316,0.0343,0.0334,0.0353,0.0363,0.0343,0.0367,0.0363,0.0358,0.0363,0.0348,0.0331,0.0309,0.0315,0.0317,0.0303,0.0285,0.031,0.0305,0.0307,0.0308,0.0279,0.0277,0.0296,0.0295,0.0295,0.0295,0,0.0352,0.0372,0.0382,0.0405,0.0412,0.0427,0.0426,0.0431,0.0425,0.0419,0.042,0.0387,0.0378,0.0365,0.0347,0.0345,0.0328,0.0312,0.0297,0.0313,0.0282,0.0279,0.0299,0.0298,0.0297,0.0297,0,0,0.037,0.0403,0.0409,0.0433,0.0443,0.0459,0.0477,0.0493,0.0514,0.0492,0.0514,0.0481,0.0453,0.0444,0.0412,0.0389,0.0368,0.0358,0.0355,0.0335,0.0316,0.0303,0.0298,0.0353,0.0353,0.0353,0.029,0,0.0404,0.0457,0.0462,0.0514,0.0542,0.0536,0.0561,0.0569,0.0567,0.058,0.0539,0.0544,0.0487,0.0485,0.045,0.0395,0.0364,0.0386,0.03,0.0297,0.0287,0.0296,0.0309,0.0255,0.0287,0.0287,0.0286,0,0.0444,0.0478,0.0535,0.0584,0.0595,0.062,0.0661,0.0683,0.0684,0.068,0.0663,0.0631,0.0596,0.0547,0.0452,0.0471,0.0398,0.0347,0.0343,0.0315,0.0279,0.0244,0.0248,0.0281,0.0282,0.0282,0.0283,0,0.0478,0.0532,0.0585,0.0601,0.0646,0.0673,0.0698,0.0713,0.0749,0.0748,0.0767,0.0707,0.0694,0.0596,0.0478,0.0468,0.0375,0.0345,0.0262,0.0259,0.0246,0.0243,0.0277,0.0277,0.0277,0.0277,0.0277,0,0.052,0.0564,0.0608,0.0639,0.071,0.0721,0.079,0.0802,0.0832,0.0888,0.0823,0.0846,0.0707,0.0636,0.0511,0.0381,0.0393,0.0272,0.0246,0.0262,0.0261,0.0266,0.0266,0.0275,0.0275,0.0276,0.0276,0,0.0554,0.058,0.0647,0.0705,0.0731,0.0783,0.0862,0.091,0.0926,0.0997,0.1005,0.0956,0.0866,0.0715,0.0561,0.0437,0.0307,0.0255,0.0281,0.0259,0.0196,0.0198,0.0158,0.0157,0.0156,0.0155,0.0155,0,0.0576,0.0613,0.0699,0.0747,0.0778,0.0856,0.0914,0.0957,0.1017,0.1072,0.1114,0.1052,0.1025,0.0784,0.0562,0.0346,0.0311,0.0205,0.0184,0.0207,0.0185,0.0189,0.0193,0.0178,0.0178,0.0177,0.0177,0,0.0617,0.0646,0.0703,0.0801,0.0874,0.0967,0.1055,0.1118,0.1183,0.1241,0.13,0.1284,0.1069,0.0857,0.0556,0.0401,0.0239,0.0193,0.0214,0.0212,0.0222,0.0202,0.0206,0.0175,0.0175,0.0175,0.0176,0.0176,0.0647,0.0694,0.0767,0.0863,0.0951,0.1068,0.1149,0.1247,0.1359,0.145,0.1431,0.1403,0.1162,0.0781,0.0516,0.0228,0.0248,0.0134,0.0136,0.0138,0.0157,0.0167,0.0112,0.0112,0.0112,0.0112,0.0111,0,0.0683,0.074,0.0825,0.0941,0.1036,0.1085,0.1235,0.132,0.1458,0.1529,0.1572,0.1337,0.11,0.081,0.0399,0.0158,0.0131,0.0063,0.0088,0.0093,0.0096,0.0114,0.0056,0.0055,0.0054,0.0054,0,0,0.0705,0.0784,0.0829,0.0987,0.1073,0.1212,0.1303,0.1435,0.1521,0.1589,0.157,0.1523,0.1188,0.0876,0.0546,0.0305,0.025,0.0245,0.0317,0.0392,0.0398,0.0165,0.02,0,0,0,0,0]}],[{"header":{"parameterUnit":"m.s-1","parameterCategory":2,"la1":30.2991,"la2":30.254,"lo1":-89.0895,"lo2":-89.0444,"dy":0.0017,"dx":0.0017,"nx":28,"ny":28,"refTime":"2024-06-07T03:00:00:Z","depth":"4","parameterNumber":2,"parameterNumberName":"U-component_of_CURRENTS"},"data":[0,0,0,0,0,0,0,0,0,0,0,0,0,0,0,0,0,0,0,0,0,0,0,0,0,0,0,0,0,0,0,0,0,0,0,0,0,0,0,0,0,0,0,0,0,0,0,0,0,0,0,0,0,0,0,0,0,0,0.1699,0.17,0,0.1745,0.1745,0.1746,0.1791,0.1792,0.1793,0.1794,0.1856,0.1857,0.1858,0,0,0,0,0,0,0,0,0,0,0,0,0,0.1652,0.1652,0.1699,0.17,0.17,0.1745,0.1745,0.1746,0.1791,0.1792,0.1793,0.1794,0.1855,0.1856,0.1858,0,0,0,0,0,0,0,0,0,0,0,0,0,0.1681,0.1653,0.1699,0.173,0.1733,0.1745,0.1745,0.1746,0.1791,0.1792,0.1793,0.1794,0.1855,0.1856,0.1858,0.1844,0,0,0.1862,0.1863,0,0,0,0,0,0,0,0,0.1679,0.1682,0.1724,0.1728,0.1731,0.1765,0.1752,0.178,0.1791,0.1767,0.1794,0.1795,0.1827,0.1831,0.1835,0.1847,0.185,0.1862,0.1863,0.1864,0.1864,0,0,0,0,0,0,0,0.1677,0.1681,0.1716,0.1725,0.1729,0.1742,0.1747,0.1757,0.1789,0.1769,0.1773,0.178,0.1829,0.1833,0.1836,0.1851,0.1862,0.1864,0.1864,0.1865,0.1963,0.1965,0,0,0,0,0,0,0.1673,0.1679,0.1714,0.1717,0.1709,0.1742,0.1747,0.1752,0.1789,0.1796,0.1779,0.1782,0.183,0.1835,0.1839,0.1922,0.1864,0.1865,0.1866,0.1962,0.1964,0.1966,0,0,0,0,0,0,0.1672,0.1676,0.1712,0.1701,0.1706,0.1741,0.1746,0.1752,0.1792,0.1797,0.1804,0.1817,0.1831,0.1837,0.1883,0.1922,0.1866,0.1867,0.196,0.1962,0.1965,0.2027,0,0,0,0,0,0,0.167,0.1675,0.1696,0.17,0.1707,0.1738,0.1745,0.1752,0.1793,0.1799,0.1831,0.1836,0.1832,0.1881,0.1884,0.1923,0.1868,0.1957,0.1961,0.1964,0.2023,0.2032,0.2039,0,0,0,0,0,0.1669,0.1683,0.1696,0.1702,0.1728,0.1739,0.1744,0.1772,0.1794,0.1812,0.1843,0.1837,0.1904,0.1883,0.1887,0.1927,0.1956,0.196,0.1964,0.2019,0.203,0.2039,0,0,0,0,0,0,0.1675,0.1689,0.1704,0.1724,0.1742,0.1748,0.1774,0.1791,0.1829,0.1849,0.1855,0.1862,0.1916,0.1913,0.189,0.1966,0.1931,0.1935,0.1972,0.1982,0.199,0.1984,0.1869,0,0,0,0,0,0.1685,0.1703,0.1714,0.1736,0.1748,0.1769,0.1787,0.1805,0.1829,0.1849,0.1871,0.1901,0.1928,0.195,0.1966,0.2006,0.2002,0.2036,0.2044,0.2051,0.205,0.2084,0.2095,0.1979,0.1979,0.1979,0,0,0.1695,0.1707,0.1718,0.174,0.1759,0.178,0.1783,0.1818,0.1848,0.1848,0.1909,0.193,0.1945,0.1991,0.2016,0.1999,0.2083,0.2056,0.2062,0.2056,0.209,0.2101,0.2111,0.1981,0.1981,0.198,0,0,0.1708,0.1734,0.175,0.1768,0.1802,0.1813,0.1831,0.1859,0.1889,0.1941,0.1952,0.1997,0.2041,0.2055,0.2069,0.2131,0.2123,0.2148,0.2187,0.2222,0.2231,0.2239,0.225,0.2259,0.2154,0.2154,0.2154,0,0.1726,0.1741,0.1759,0.1779,0.1801,0.1832,0.1856,0.1886,0.193,0.1959,0.1974,0.2053,0.2069,0.2118,0.2146,0.2149,0.2162,0.2148,0.2232,0.224,0.2247,0.2256,0.2265,0.2158,0.2157,0.2157,0.2157,0,0.1737,0.1767,0.178,0.1816,0.1843,0.187,0.1906,0.195,0.1997,0.2026,0.2099,0.2125,0.2171,0.2189,0.2191,0.2255,0.2244,0.2235,0.2204,0.2263,0.2268,0.2277,0.2163,0.2162,0.2161,0.216,0,0,0.1726,0.1778,0.1788,0.1811,0.1866,0.1882,0.1946,0.1996,0.2045,0.2104,0.2166,0.2222,0.2247,0.2263,0.2274,0.2307,0.2374,0.2304,0.2304,0.2308,0.2445,0.228,0.2273,0.2389,0.2391,0.2392,0.2428,0,0.1733,0.1771,0.18,0.185,0.187,0.1923,0.1976,0.2035,0.2093,0.2162,0.2211,0.2276,0.2272,0.2312,0.2345,0.2372,0.2399,0.2364,0.2392,0.2392,0.2234,0.2278,0.2398,0.2434,0.2436,0.2437,0.2438,0,0.1726,0.1755,0.18,0.1864,0.1881,0.1926,0.2013,0.2063,0.2161,0.2214,0.2286,0.2327,0.2397,0.2386,0.2454,0.2438,0.2449,0.2457,0.2459,0.2284,0.2241,0.2364,0.2452,0.2451,0.245,0.2449,0.2448,0,0.1686,0.1751,0.1789,0.1811,0.1891,0.1938,0.1992,0.2087,0.2139,0.2255,0.2314,0.2391,0.2452,0.2483,0.2512,0.25,0.2571,0.2552,0.2405,0.2393,0.2503,0.2494,0.259,0.259,0.259,0.259,0.259,0,0.1656,0.1691,0.1781,0.1799,0.186,0.1929,0.2006,0.2074,0.2181,0.224,0.2342,0.239,0.2486,0.2534,0.2539,0.2491,0.2596,0.2409,0.2392,0.2529,0.2522,0.2509,0.2499,0.2591,0.2591,0.2591,0.2591,0,0.1596,0.1656,0.1704,0.1804,0.184,0.1887,0.2006,0.2052,0.2173,0.2255,0.2301,0.2422,0.2476,0.2535,0.2589,0.2509,0.2491,0.2447,0.259,0.2582,0.2281,0.2274,0.2274,0.2268,0.2264,0.226,0.2256,0,0.1561,0.1582,0.1695,0.1728,0.1779,0.1862,0.1913,0.2037,0.2082,0.2242,0.2264,0.2376,0.2436,0.2374,0.2449,0.2435,0.2405,0.2373,0.2315,0.2265,0.225,0.2251,0.225,0.2249,0.2248,0.2247,0.2245,0,0.1494,0.1555,0.1596,0.1667,0.1728,0.1778,0.1862,0.1882,0.2016,0.2147,0.2169,0.2189,0.2243,0.2264,0.2276,0.2262,0.2379,0.2323,0.2332,0.2278,0.2235,0.2225,0.223,0.2229,0.2231,0.2233,0.2234,0,0.1454,0.1467,0.1536,0.1579,0.1652,0.1666,0.1723,0.1765,0.1824,0.1992,0.1992,0.2106,0.222,0.2175,0.2185,0.216,0.2117,0.203,0.2053,0.2072,0.1987,0.1902,0.1777,0,0,0,0,0,0.14,0.1397,0.1437,0.147,0.1536,0.1575,0.1671,0.1731,0.186,0.1821,0.1899,0.1934,0.1941,0.1998,0.1929,0.2094,0.2131,0.2003,0.2045,0.2139,0.2158,0.2075,0,0,0,0,0,0,0.1362,0.1398,0.1398,0.1368,0.137,0.1422,0.1476,0.1565,0.1548,0.1689,0.1705,0.1806,0.1848,0.196,0.189,0.1906,0.1887,0.2075,0.2069,0.2129,0.2146,0.2161,0.2082,0,0,0,0,0]},{"header":{"parameterUnit":"m.s-1","parameterCategory":2,"la1":30.2991,"la2":30.254,"lo1":-89.0895,"lo2":-89.0444,"dy":0.0017,"dx":0.0017,"nx":28,"ny":28,"refTime":"2024-06-07T03:00:00:Z","depth":"4","parameterNumber":3,"parameterNumberName":"V-component_of_CURRENTS"},"data":[0,0,0,0,0,0,0,0,0,0,0,0,0,0,0,0,0,0,0,0,0,0,0,0,0,0,0,0,0,0,0,0,0,0,0,0,0,0,0,0,0,0,0,0,0,0,0,0,0,0,0,0,0,0,0,0,0,0,0.0229,0.0229,0,0.0218,0.0217,0.0217,0.0212,0.0212,0.0212,0.0212,0.0203,0.0202,0.0202,0,0,0,0,0,0,0,0,0,0,0,0,0,0.0211,0.0212,0.0229,0.0229,0.0229,0.0218,0.0217,0.0217,0.0212,0.0212,0.0212,0.0212,0.0203,0.0202,0.0202,0,0,0,0,0,0,0,0,0,0,0,0,0,0.0211,0.0212,0.0229,0.0226,0.0225,0.0218,0.0217,0.0217,0.0212,0.0212,0.0212,0.0212,0.0203,0.0202,0.0202,0.0196,0,0,0.02,0.02,0,0,0,0,0,0,0,0,0.0211,0.0211,0.0226,0.0226,0.0226,0.0217,0.0207,0.0211,0.0212,0.0216,0.0212,0.0212,0.0208,0.0207,0.0204,0.0196,0.0195,0.02,0.02,0.02,0.02,0,0,0,0,0,0,0,0.0211,0.0212,0.0224,0.0226,0.0226,0.0212,0.0213,0.0208,0.0211,0.0216,0.0216,0.0215,0.0208,0.0204,0.0203,0.0195,0.02,0.02,0.02,0.0199,0.0197,0.0197,0,0,0,0,0,0,0.0216,0.0212,0.0224,0.0224,0.0219,0.0213,0.0213,0.0219,0.0211,0.021,0.0215,0.0215,0.0205,0.0204,0.0203,0.0219,0.02,0.0199,0.0199,0.0196,0.0197,0.0197,0,0,0,0,0,0,0.0215,0.0217,0.0225,0.0218,0.0218,0.0213,0.022,0.0219,0.0222,0.0211,0.021,0.022,0.0205,0.0204,0.0208,0.0218,0.0199,0.0199,0.0196,0.0197,0.0197,0.0236,0,0,0,0,0,0,0.0215,0.0217,0.0224,0.0218,0.0218,0.0229,0.022,0.0218,0.0221,0.0221,0.0215,0.0213,0.0205,0.0209,0.0207,0.0217,0.0198,0.0196,0.0196,0.0197,0.0234,0.0238,0.024,0,0,0,0,0,0.0215,0.0224,0.0224,0.0226,0.0228,0.0229,0.0228,0.0224,0.0222,0.0227,0.0223,0.0214,0.021,0.0209,0.0207,0.0216,0.0196,0.0196,0.0197,0.0233,0.0237,0.024,0,0,0,0,0,0,0.0219,0.0225,0.0225,0.0236,0.0236,0.0229,0.0232,0.0229,0.0229,0.023,0.0219,0.0218,0.0224,0.0214,0.0212,0.0215,0.02,0.0201,0.0229,0.0232,0.0235,0.0246,0.0198,0,0,0,0,0,0.0224,0.0234,0.0234,0.0243,0.0245,0.0239,0.024,0.0238,0.0236,0.0236,0.0232,0.0226,0.0223,0.0224,0.0218,0.0222,0.0203,0.0225,0.0228,0.0231,0.0238,0.0216,0.0218,0.0199,0.0199,0.0199,0,0,0.0228,0.0232,0.0238,0.0245,0.0244,0.0255,0.024,0.0244,0.0257,0.0235,0.025,0.0237,0.0226,0.0231,0.0233,0.0226,0.0225,0.0231,0.0234,0.024,0.0217,0.0219,0.0221,0.0199,0.0199,0.0199,0,0,0.0242,0.0246,0.026,0.0264,0.0268,0.0267,0.0271,0.027,0.0273,0.0283,0.0269,0.0262,0.0262,0.0253,0.0249,0.0264,0.0241,0.0262,0.0289,0.0268,0.0269,0.027,0.0244,0.0243,0.0265,0.0265,0.0265,0,0.0247,0.0269,0.0263,0.0279,0.0289,0.0277,0.0296,0.0296,0.0297,0.0303,0.0295,0.0288,0.0273,0.0279,0.0282,0.0272,0.0255,0.0278,0.0272,0.0273,0.0273,0.0246,0.0244,0.0267,0.0266,0.0266,0.0266,0,0.0273,0.0292,0.03,0.032,0.0328,0.0342,0.0344,0.0352,0.0352,0.035,0.0356,0.0333,0.0329,0.032,0.0307,0.0305,0.0291,0.0278,0.0265,0.0278,0.0248,0.0245,0.0269,0.0269,0.0268,0.0268,0,0,0.0284,0.0314,0.032,0.0342,0.0354,0.0367,0.0386,0.0402,0.0421,0.0409,0.0429,0.0408,0.0389,0.0383,0.0359,0.0339,0.0319,0.0314,0.0312,0.0292,0.0271,0.025,0.0244,0.0307,0.0307,0.0307,0.0247,0,0.031,0.0353,0.036,0.0405,0.0428,0.0429,0.0452,0.0462,0.0465,0.0478,0.0449,0.0457,0.0416,0.0417,0.0388,0.0341,0.0314,0.0336,0.0259,0.0256,0.0239,0.0242,0.0307,0.0245,0.0244,0.0244,0.0243,0,0.0338,0.0366,0.0414,0.0459,0.0469,0.0494,0.0532,0.0553,0.0558,0.0558,0.0548,0.0526,0.0499,0.0463,0.0383,0.04,0.034,0.0296,0.0293,0.026,0.023,0.0229,0.0237,0.0238,0.0238,0.0239,0.0239,0,0.0357,0.0406,0.0451,0.0466,0.0509,0.0536,0.0561,0.0578,0.061,0.0614,0.0629,0.0584,0.0574,0.0495,0.0396,0.0393,0.0304,0.0286,0.0208,0.0205,0.0224,0.0224,0.0227,0.0227,0.0227,0.0228,0.0228,0,0.0384,0.0422,0.0469,0.0495,0.0558,0.0573,0.0635,0.0649,0.0678,0.072,0.0676,0.0687,0.0584,0.052,0.0418,0.0303,0.0316,0.0214,0.019,0.0241,0.0243,0.0222,0.0222,0.0225,0.0226,0.0226,0.0227,0,0.04,0.0428,0.0487,0.0544,0.0571,0.0618,0.0694,0.0734,0.0752,0.0805,0.0813,0.0769,0.0685,0.0567,0.0437,0.0341,0.0228,0.0182,0.0246,0.0227,0.0136,0.0139,0.0093,0.0092,0.0091,0.009,0.0089,0,0.0411,0.0442,0.0526,0.057,0.0603,0.0675,0.0727,0.0771,0.0816,0.0853,0.0878,0.0822,0.0773,0.0573,0.0438,0.0243,0.021,0.0142,0.0136,0.0142,0.0123,0.0128,0.0132,0.0088,0.0087,0.0087,0.0087,0,0.0431,0.0463,0.0513,0.0602,0.067,0.0751,0.0827,0.0864,0.0917,0.0936,0.0931,0.0837,0.074,0.0577,0.0426,0.0284,0.0182,0.0131,0.0132,0.0126,0.0135,0.0118,0.0124,0.0083,0.0084,0.0084,0.0085,0,0.0448,0.0484,0.055,0.0631,0.0718,0.0802,0.0843,0.0895,0.0941,0.0975,0.097,0.0867,0.0811,0.0598,0.0459,0.0317,0.0275,0.0213,0.0209,0.0211,0.0257,0.0286,0.0265,0,0,0,0,0,0.046,0.0503,0.0574,0.0664,0.0748,0.0805,0.0899,0.0932,0.0981,0.0983,0.098,0.0888,0.0692,0.0609,0.0464,0.0426,0.0242,0.0248,0.0166,0.0064,0.0068,0.0099,0,0,0,0,0,0,0.0468,0.0533,0.057,0.0676,0.0739,0.0839,0.0903,0.094,0.0939,0.0963,0.0862,0.0829,0.0639,0.0773,0.0453,0.0413,0.0334,0.0165,0.0161,0.0062,0.0066,0.0069,0.0102,0,0,0,0,0]}]]